Total_Precipitation_Accumulation
0.94 1.00 1.05 1.03 1.05 1.10 1.15 1.23 1.32 1.30 1.18 0.99 0.94 0.90 0.88 0.85 0.91 0.80 0.80 0.76 0.72 0.78 0.80 0.85 0.92 1.07 1.12 1.01 0.90 0.82 0.78 0.80 0.87 0.98 1.13 1.30 1.46 1.60
0.77 0.74 0.74 0.74 0.76 0.78 0.85 0.95 1.06 1.14 1.14 0.96 0.88 0.92 0.91 0.82 0.92 0.84 0.82 0.82 0.79 1.00 1.11 1.03 0.99 1.17 1.32 1.27 1.09 0.96 0.90 0.86 0.86 0.90 0.99 1.12 1.26 1.41
0.56 0.57 0.61 0.60 0.64 0.64 0.67 0.78 0.93 1.06 1.16 1.00 0.88 0.91 0.96 0.92 0.93 0.90 0.85 0.85 0.96 1.35 1.57 1.75 1.48 1.37 1.45 1.40 1.27 1.08 0.95 0.91 0.93 0.97 1.04 1.13 1.17 1.21
0.48 0.51 0.54 0.56 0.57 0.58 0.62 0.70 0.84 1.00 1.17 1.14 0.98 0.99 1.00 0.98 1.04 1.03 0.91 0.81 0.87 1.31 1.64 1.96 1.93 1.72 1.72 1.55 1.36 1.13 0.99 0.93 0.95 1.00 1.05 1.08 1.13 1.18
0.44 0.49 0.54 0.61 0.63 0.63 0.68 0.72 0.79 0.88 1.07 1.16 1.08 1.08 1.14 1.16 1.27 1.18 1.03 0.99 0.82 1.07 1.49 1.82 2.01 2.08 2.16 2.00 1.68 1.31 1.04 0.90 0.84 0.87 0.93 0.96 0.97 0.97
0.41 0.49 0.55 0.64 0.70 0.72 0.72 0.76 0.81 0.90 1.00 1.13 1.16 1.18 1.23 1.30 1.35 1.32 1.16 1.02 0.90 0.89 1.34 1.82 2.16 2.21 2.39 2.50 2.18 1.66 1.23 0.96 0.81 0.75 0.70 0.68 0.68 0.68
0.44 0.46 0.50 0.60 0.69 0.66 0.63 0.65 0.78 0.96 1.02 1.14 1.18 1.17 1.15 1.25 1.27 1.12 1.04 0.95 0.85 0.83 1.02 1.43 2.12 2.46 2.53 2.60 2.48 1.96 1.47 1.12 0.89 0.76 0.67 0.63 0.63 0.62
0.49 0.49 0.47 0.49 0.49 0.50 0.56 0.62 0.71 0.92 1.20 1.35 1.27 1.20 1.08 1.07 1.08 1.04 1.05 1.02 0.96 0.76 0.76 1.08 1.64 2.36 2.61 2.62 2.55 1.97 1.43 1.10 0.92 0.82 0.75 0.68 0.65 0.64
0.53 0.53 0.44 0.39 0.46 0.52 0.55 0.60 0.71 0.84 1.08 1.39 1.46 1.22 1.13 1.08 1.10 1.12 1.16 1.19 1.09 0.79 0.79 1.06 1.45 2.10 2.32 2.36 2.26 1.69 1.27 1.01 0.88 0.81 0.76 0.71 0.66 0.66
0.50 0.51 0.53 0.52 0.49 0.51 0.55 0.66 0.80 0.92 1.01 1.08 1.36 1.19 0.98 0.95 1.00 1.02 1.09 1.13 1.06 0.86 0.81 1.07 1.40 1.84 1.87 1.96 1.90 1.49 1.16 0.97 0.85 0.76 0.72 0.69 0.64 0.64
0.45 0.44 0.42 0.45 0.49 0.59 0.72 0.93 1.06 1.18 1.13 1.25 1.40 1.34 1.19 1.08 0.94 0.93 1.10 1.12 1.09 0.96 0.84 1.00 1.25 1.40 1.52 1.63 1.52 1.36 1.14 0.97 0.86 0.76 0.70 0.65 0.59 0.61
0.47 0.49 0.43 0.40 0.50 0.66 0.89 1.15 1.27 1.35 1.22 1.31 1.53 1.56 1.39 1.33 1.27 1.14 1.17 1.13 1.08 1.07 0.86 0.87 1.07 1.08 1.33 1.40 1.30 1.20 1.14 1.12 1.00 0.88 0.77 0.65 0.52 0.51
0.47 0.56 0.56 0.49 0.57 0.75 0.95 1.13 1.29 1.31 1.32 1.36 1.37 1.38 1.44 1.43 1.33 1.23 1.15 1.07 1.00 0.98 0.76 0.78 0.97 1.01 1.14 1.26 1.27 1.26 1.18 1.15 1.06 1.04 1.02 0.85 0.67 0.57
0.52 0.56 0.58 0.56 0.62 0.81 0.97 1.19 1.39 1.47 1.42 1.40 1.24 1.16 1.12 1.11 1.10 1.01 0.92 0.83 0.80 0.78 0.70 0.74 0.93 1.05 1.01 1.02 1.25 1.32 1.31 1.32 1.22 1.15 1.13 1.03 0.88 0.81
0.41 0.47 0.53 0.57 0.73 1.04 1.20 1.35 1.49 1.58 1.56 1.39 1.19 1.08 0.94 0.84 0.82 0.85 0.81 0.73 0.66 0.57 0.50 0.58 0.78 0.92 0.94 0.98 1.20 1.30 1.38 1.53 1.44 1.35 1.21 1.09 1.02 0.92
0.40 0.52 0.62 0.70 0.89 1.19 1.39 1.56 1.59 1.48 1.30 1.20 1.08 1.00 0.85 0.77 0.75 0.69 0.67 0.64 0.66 0.65 0.53 0.50 0.62 0.77 0.88 0.89 1.00 1.15 1.24 1.57 1.56 1.33 1.22 1.18 1.08 0.95
0.35 0.55 0.71 0.84 1.04 1.24 1.40 1.46 1.43 1.32 1.20 1.01 0.91 0.93 0.90 0.81 0.74 0.63 0.56 0.52 0.58 0.62 0.59 0.53 0.54 0.58 0.60 0.67 0.84 0.99 1.09 1.31 1.37 1.17 1.01 1.07 1.10 0.97
0.37 0.57 0.69 0.79 0.97 1.18 1.31 1.27 1.18 1.12 1.02 0.89 0.81 0.78 0.78 0.74 0.70 0.59 0.50 0.49 0.56 0.52 0.46 0.43 0.44 0.48 0.48 0.53 0.69 0.80 0.89 1.06 1.07 0.90 0.72 0.78 1.05 1.06
0.37 0.55 0.66 0.76 0.92 1.07 1.13 1.11 1.07 0.98 0.89 0.82 0.77 0.70 0.64 0.60 0.54 0.48 0.44 0.46 0.46 0.43 0.37 0.31 0.31 0.37 0.46 0.65 0.75 0.78 0.79 0.85 0.81 0.73 0.67 0.67 0.90 1.04
0.40 0.56 0.66 0.72 0.79 0.86 0.93 0.98 1.00 0.92 0.80 0.75 0.74 0.70 0.62 0.55 0.46 0.42 0.40 0.36 0.36 0.36 0.34 0.27 0.22 0.25 0.33 0.48 0.69 0.77 0.69 0.62 0.56 0.58 0.58 0.62 0.76 0.84
0.45 0.56 0.62 0.68 0.69 0.70 0.75 0.81 0.84 0.82 0.74 0.69 0.68 0.65 0.59 0.51 0.41 0.33 0.28 0.18 0.21 0.27 0.28 0.25 0.19 0.15 0.18 0.25 0.41 0.54 0.54 0.55 0.46 0.40 0.39 0.41 0.46 0.46
0.43 0.50 0.56 0.59 0.57 0.57 0.58 0.62 0.65 0.65 0.62 0.59 0.57 0.54 0.47 0.37 0.31 0.25 0.22 0.21 0.23 0.22 0.19 0.14 0.11 0.10 0.12 0.22 0.34 0.41 0.39 0.35 0.32 0.31 0.31 0.28 0.27 0.38
0.40 0.42 0.44 0.46 0.45 0.44 0.44 0.45 0.50 0.53 0.54 0.56 0.53 0.47 0.38 0.30 0.25 0.19 0.16 0.14 0.15 0.13 0.13 0.13 0.09 0.08 0.08 0.13 0.19 0.24 0.24 0.23 0.21 0.22 0.27 0.33 0.34 0.41